Location: Shenandoah County Park
(38.9356°N, 78.4524°W)
Time: 13:15:32
(UTC-04:00)

Envisat - Visible Passes

Search period start: 26 May 2022 00:00
Search period end: 05 June 2022 00:00
Orbit: 764 x 765 km, 98.2° (Epoch: 25 May)

Date Brightness Start Highest point End Pass type
(mag) Time Alt. Az. Time Alt. Az. Time Alt. Az.
27 May 4.5 05:15:25 10° NNE 05:20:08 38° E 05:24:49 10° SSE visible
28 May 5.6 04:39:45 10° NE 04:42:56 17° E 04:46:06 10° SE visible
30 May 4.9 05:03:54 10° NE 05:08:18 29° E 05:12:41 10° SSE visible
31 May 5.8 04:28:54 10° ENE 04:31:03 13° E 04:33:11 10° ESE visible
02 Jun 5.3 04:52:29 10° NE 04:56:28 23° E 05:00:25 10° SE visible
04 Jun 4.4 05:17:00 10° NNE 05:21:47 40° E 05:26:31 10° SSE visible
